Regional Weather Roundup
Issued by NWS Wakefield, VA

Home | Current Version | Previous Version | Graphics & Text | Print | Product List | Glossary On
Versions: 1 2 3 4 5 6 7 8 9 10 11 12 13 14 15 16 17 18 19 20 21 22 23 24 25 26 27 28 29 30 31 32 33 34 35 36 37 38 39 40 41 42 43 44 45 46 47 48 49
000
ASUS41 KAKQ 252210
RWRAKQ

REGIONAL WEATHER ROUNDUP
NATIONAL WEATHER SERVICE WAKEFIELD VA
500 PM EST WED FEB 25 2015

Note: "fair" indicates few or no clouds below 12,000 feet with no
significant weather and/or obstructions to visibility. * = Denotes
station may not report precipitation (e.g., rain,snow,etc.),
thunder or fog.

VAZ042-051-052>054-056-252300-
NORTHERN VIRGINIA

CITY           SKY/WX    TMP DP  RH WIND       PRES   REMARKS
WASH NATIONAL  CLOUDY    41  14  33 W6        29.94R
DULLES         CLOUDY    37  16  42 S6        29.92R
FORT BELVOIR   PTCLDY    41  13  31 CALM      29.93R
QUANTICO       PTSUNNY   38  20  48 E5        29.94R
FREDERICKSBRG* CLOUDY    43  15  33 W5        29.91R
STAFFORD*      PTSUNNY   40   9  27 CALM      29.96R
WARRENTON      PTSUNNY   40  22  47 CALM      29.90R
CULPEPER*      CLOUDY    41  14  33 CALM      29.91R
MANASSAS*      SUNNY     39  12  33 CALM      29.92F
LEESBURG*      MOSUNNY   37  21  52 S6        29.92R
WINCHESTER     MOSUNNY   41   5  22 S3        29.88R
FRONT ROYAL*   FAIR      37  16  41 S3        29.87R
LURAY*         FAIR      41  19  42 CALM      29.86S
$$

VAZ048-049-060>072-079>083-252300-
CENTRAL AND SOUTH CENTRAL VIRGINIA

CITY           SKY/WX    TMP DP  RH WIND       PRES   REMARKS
RICHMOND       CLOUDY    44  17  33 S5        29.91S
CHESTERFIELD*  FAIR      45  12  26 SE5       29.91S
PETERSBURG*    PTSUNNY   46  13  26 SE3       29.92R
HANOVER        CLOUDY    43  15  32 CALM      29.92S
TAPPAHANNOCK*  CLOUDY    44  10  24 CALM      29.93R
QUINTON*       FAIR      43  16  33 S3        29.91R
CHARLOTTSVILLE CLOUDY    40  14  34 S6        29.87R
GORDONSVILLE*  FAIR      39  14  35 S3        29.89S
ORANGE*        CLOUDY    41  16  36 SE3       29.91R
LOUISA*        CLOUDY    43  14  31 CALM      29.88S
BUMPASS*       FAIR      41  14  33 CALM      29.91R
FARMVILLE*     CLOUDY    45  18  33 CALM      29.89F
CREWE*         FAIR      44  10  25 CALM      29.90S
FORT PICKETT*  FAIR      42  19  38 S5        29.92R
CHASE CITY*    FAIR      46  17  31 CALM      29.90R
CLARKSVILLE*   FAIR      43  16  33 CALM      29.91R
SOUTH HILL*    PTSUNNY   42  18  38 S7        29.97R
LAWRENCEVILLE* FAIR      44  19  36 CALM      29.91R
EMPORIA*       MOSUNNY   43  21  42 SE6       29.95R
$$

VAZ088>098-252300-
SOUTHEAST VIRGINIA

CITY           SKY/WX    TMP DP  RH WIND       PRES   REMARKS
NORFOLK        PTCLDY    37  18  46 NE6       29.94F
VIRGINIA BEACH MOCLDY    38  18  44 SE9       29.95S
NORFOLK NAVAL  CLOUDY    40  17  39 E7        29.96R
WEST POINT*    MOCLDY    42  19  40 SE10      29.94R
SALUDA*        FAIR      35  18  49 SE5       29.94R
NEWPORT NEWS   MOCLDY    42  17  36 SE5       29.94S
LANGLEY AFB    PTCLDY    37  16  41 SE5       29.94F
FORT EUSTIS    PTSUNNY   40  18  41 S6        29.92S
WILLIAMSBURG*  PTSUNNY   43  21  42 S7        29.95R
HR EXEC AP*    FAIR      43  19  39 SE8       29.96S
FRANKLIN*      PTSUNNY   42  21  43 S3        29.95R
WAKEFIELD      PTSUNNY   43  18  36 VRB3      29.93R
$$

VAZ020-022-025-037-045-252300-
WEST CENTRAL AND SOUTHWEST VIRGINIA

CITY           SKY/WX    TMP DP  RH WIND       PRES   REMARKS
STAUNTON*      CLOUDY    38  12  34 CALM      29.87S
WAYNESBORO*    FAIR      38  14  38 SE3       29.84S
HOT SPRINGS VA CLOUDY    28  12  50 S5        29.74R
LYNCHBURG      CLOUDY    39  14  36 S5        29.91R
DANVILLE       CLOUDY    43  16  33 CALM      29.89F
SOUTH BOSTON*  FAIR      44  13  28 CALM      29.89F
MARTINSVILLE   CLOUDY    41  19  40 CALM      29.91S
ROANOKE        CLOUDY    39  12  33 SE6       29.90R
BLACKSBURG     CLOUDY    35  13  40 SW3       29.88R
DUBLIN*        CLOUDY    37  17  45 CALM      29.85R
MARION*        CLOUDY    35  16  45 NE6       29.82S
HILLSVILLE*    CLOUDY    35  17  48 S3        29.82R
RICHLANDS*     FAIR      33  13  43 E6        29.78S
WISE*          CLOUDY    32  16  51 CALM      29.80F
ABINGDON*      CLOUDY    35  19  51 E6        29.80F
$$

MDZ021>025-VAZ099-100-252300-
SOUTHERN MARYLAND AND THE DELMARVA PENINSULA

CITY           SKY/WX    TMP DP  RH WIND       PRES   REMARKS
PATUXENT RIVER MOCLDY    34  21  59 SE8       29.93S
BAY BRIDGE APT   N/A     36  14  41 CALM      29.94R
LEONARDTOWN    PTCLDY    36  16  44 E6        29.95R
DOVER          CLEAR     37  17  46 W7        29.91F
GEORGETOWN     CLEAR     37  15  40 W3        29.92F
EASTON         MOCLDY    39  18  41 CALM      29.96F
CAMBRIDGE      CLEAR     37  18  44 CALM      29.94R
SALISBURY      CLEAR     40  18  41 N7        29.92F
OCEAN CITY     CLEAR     37  16  42 NW7       29.94F
WALLOPS ISLAND PTCLDY    39  19  44 W6        29.93F
ACCOMACK*      PTCLDY    37  12  35 CALM      29.94R
$$

NCZ012>017-030>032-252300-
NORTH CENTRAL AND EASTERN NORTH CAROLINA

CITY           SKY/WX    TMP DP  RH WIND       PRES   REMARKS
ROANOKE RAPIDS FAIR      43  23  45 CALM      29.94R
RALEIGH        CLOUDY    43  21  41 S7        29.91R
ELIZABETH CITY NOT AVBL
AHOSKIE*       PTSUNNY   41  22  47 CALM      29.96R
EDENTON*       MOSUNNY   38  19  45 E8        29.96F
CURRITUCK*     PTCLDY    38  18  43 E3        29.97R
KILL DEVIL HLS PTCLDY    34  28  79 CALM      29.94F
MANTEO         PTCLDY    34  27  75 NE3       29.96S
CAPE HATTERAS  CLOUDY    35  29  78 CALM      29.97R
TARBORO*       FAIR      41  24  49 SE5       29.96R
GOLDSBORO      CLOUDY    40  35  83 CALM      29.94R
WASHINGTON     CLOUDY    38  25  58 E3        29.97R
GREENVILLE     CLOUDY    39  25  56 CALM      29.98R
NEW BERN       CLOUDY    39  29  67 CALM      29.99R
WILMINGTON     CLOUDY    39  34  82 SE6       29.94S
$$

VAZ048-252300-
ELSEWHERE

CITY           SKY/WX    TMP DP  RH WIND       PRES   REMARKS
HARRISBURG PA  PTCLDY    36  15  42 W8        29.88F
BALTIMORE      MOCLDY    37  16  42 SW5       29.90F
ANNAPOLIS      PTCLDY    38  14  37 W6        29.91F
ANDREWS AFB    PTCLDY    38  15  38 W6        29.91S
PHILADELPHIA   MOCLDY    38  14  37 W10       29.91F
HENDERSON NC   CLOUDY    42  14  31 CALM      29.90F
GREENSBORO     CLOUDY    43  20  39 CALM      29.86F
ROCKY MOUNT    CLOUDY    42  23  46 S3        29.94R
$$

VAZ100-252300-
MARINE

STATION/POSITION TIME  TEMP    WIND        PRES    WAVE   SWELL
                       AIR SEA DIR/SP/G            HT/PER HT/PER
                 (UTC) (F)     (DEG/KT/KT) (MB)    (FT/S) (FT/S)
BRANDYWINE LGT   2100   33     320/  5/  6   N/A
CAPE MAY NJ      2200   35 31  320/  2/  5 1013.2F
LEWES DE         2200   36 30  300/  9/ 11 1013.1F
15NM E FENWICK I 2200   35 35              1013.4F   2/11
OCEAN-CITY-INLET 2200   38 32  330/ 10/ 13 1013.2F
WACHAPREAGUE VA  2200   35 32  190/  6/  7 1014.0R
THOMAS POINT MD  2200   37 31  280/  6/  7 1014.6S
COVE POINT MD    2200   36      50/  7/  9 1012.6F
SOLOMONS ISLAND  2200      33                N/A
BISHOPS HEAD MD  2200   35 34  200/  8/ 10 1012.4F
CAMBRIDGE MD     2200   37 31  290/  1/  2 1012.7F
LEWISETTA VA     2200             CALM     1013.3R
RAPPAHANNOCK LGT 2200           CALM  /  1 1014.5R
STINGRAY PT      2200   33     170/  6/  8   N/A
YORKTOWN VA      2200   37 35  120/  7/ 10 1013.6S
DOMINION TERM VA 2200   37     340/  1/  4 1013.8F
KIPTOPEKE VA     2200          180/  6/  7   N/A
CHES BAY BRIDGE  2200   34 33   80/  7/  7 1013.9S
CAPE HENRY VA    2200   34     130/  6/  7 1012.9R
CHESAPEAKE LGHT  2100   35      CALM  /  1 1015.2F
WILLOUBY STN VA  2200          100/  8/  9 1014.4F
S CRANEY ISL VA  2200           50/  8/  9 1013.7F
CAPE HENRY BUOY  2200      37                N/A     2/11   2/11
1ST LANDING BUOY 2200   35     110/  6/  6 1014.1R
OFFSHORE WE BUOY 2200      39                N/A     3/10   3/10
64NM E OF VA BCH 2200   40 52   40/  4/  8 1014.2S   3/ 8   3/ 8
DUCK PIER NC     2200   35 35              1013.8F
44100 DUCK FRF   2100      37                N/A     3/11   2/11
44056 DUCK FRF   2200      36                N/A     2/11   2/11
OREGON INLET NC  2200   33 36  350/  5/  6 1014.5S
HATTERAS NC      2200   35 39   60/  3/  4 1015.0R
CAPE LOOKOUT NC  2200   39      60/  7/  8 1014.3F
$$


USA.gov is the U.S. government's official web portal to all federal, state and local government web resources and services.